BTK223 WAAA-WAEE

Flight info

Callsign BTK223
Flight time 1h 32m
Altitude 37000
Route KENDO A450 TALIA DCT IRSET
Aircraft A320/M-SDE3FGHIRWY/LB1

Departure

Time 2026-04-23 16:13
Airport Sultan Hasanuddin International Airport (WAAA)

Arrival

Time 2026-04-23 17:46
Airport Sultan Babullah Airport (WAEE)
Time Latitude Longitude Altitude Speed Heading
2026-04-23 15:59 -5.07758 119.54739 41 ft 0 kts 300°
2026-04-23 16:02 -5.07767 119.54755 41 ft 4 kts 296°
2026-04-23 16:02 -5.07777 119.54780 38 ft 4 kts 282°
2026-04-23 16:02 -5.07778 119.54805 37 ft 4 kts 239°
2026-04-23 16:03 -5.07772 119.54813 39 ft 0 kts 210°
2026-04-23 16:06 -5.07793 119.54801 37 ft 5 kts 210°
2026-04-23 16:07 -5.07820 119.54785 41 ft 8 kts 210°
2026-04-23 16:07 -5.07851 119.54766 41 ft 0 kts 210°
2026-04-23 16:07 -5.07852 119.54766 41 ft 2 kts 210°
2026-04-23 16:07 -5.07881 119.54749 41 ft 7 kts 210°
2026-04-23 16:08 -5.07938 119.54716 41 ft 12 kts 210°
2026-04-23 16:08 -5.07999 119.54726 39 ft 9 kts 122°
2026-04-23 16:08 -5.08033 119.54786 41 ft 12 kts 119°
2026-04-23 16:08 -5.08091 119.54850 41 ft 13 kts 180°
2026-04-23 16:09 -5.08191 119.54799 41 ft 18 kts 210°
2026-04-23 16:09 -5.08306 119.54732 41 ft 20 kts 210°
2026-04-23 16:09 -5.08434 119.54659 41 ft 22 kts 210°
2026-04-23 16:09 -5.08573 119.54578 41 ft 24 kts 210°
2026-04-23 16:10 -5.08722 119.54493 41 ft 26 kts 210°
2026-04-23 16:10 -5.08884 119.54399 41 ft 28 kts 210°
2026-04-23 16:10 -5.09046 119.54306 41 ft 20 kts 210°
2026-04-23 16:10 -5.09146 119.54279 41 ft 12 kts 155°
2026-04-23 16:11 -5.09184 119.54326 41 ft 6 kts 121°
2026-04-23 16:11 -5.09208 119.54366 42 ft 8 kts 121°
2026-04-23 16:11 -5.09202 119.54420 40 ft 9 kts 48°
2026-04-23 16:11 -5.09167 119.54441 42 ft 2 kts 28°
2026-04-23 16:12 -5.09133 119.54461 43 ft 14 kts 30°
2026-04-23 16:12 -5.09044 119.54512 44 ft 11 kts 30°
2026-04-23 16:12 -5.08980 119.54549 44 ft 13 kts 30°
2026-04-23 16:12 -5.08757 119.54677 44 ft 72 kts 30°
2026-04-23 16:13 -5.08136 119.55035 40 ft 133 kts 30°
2026-04-23 16:13 -5.06209 119.56137 873 ft 159 kts 30°
2026-04-23 16:13 -5.05239 119.56647 1528 ft 158 kts 18°
2026-04-23 16:14 -5.04129 119.56748 1951 ft 169 kts 354°
2026-04-23 16:14 -5.02879 119.56615 2155 ft 192 kts 354°
2026-04-23 16:14 -5.01461 119.56463 2366 ft 217 kts 354°
2026-04-23 16:14 -4.99881 119.56295 2673 ft 240 kts 354°
2026-04-23 16:15 -4.98139 119.56109 3058 ft 261 kts 354°
2026-04-23 16:15 -4.96300 119.55911 3723 ft 269 kts 356°
2026-04-23 16:15 -4.94417 119.55840 4476 ft 272 kts
2026-04-23 16:15 -4.92557 119.56202 5209 ft 274 kts 23°
2026-04-23 16:16 -4.90910 119.57102 5953 ft 274 kts 40°
2026-04-23 16:16 -4.89598 119.58481 6659 ft 276 kts 58°
2026-04-23 16:16 -4.88784 119.60220 7369 ft 277 kts 76°
2026-04-23 16:16 -4.88508 119.62135 8086 ft 279 kts 85°
2026-04-23 16:17 -4.88314 119.64088 8818 ft 283 kts 85°
2026-04-23 16:17 -4.88115 119.66064 9547 ft 286 kts 85°
2026-04-23 16:17 -4.87915 119.68064 10210 ft 293 kts 85°
2026-04-23 16:17 -4.87701 119.70183 10383 ft 316 kts 84°
2026-04-23 16:18 -4.87474 119.72446 10588 ft 335 kts 84°
2026-04-23 16:18 -4.87238 119.74799 11098 ft 342 kts 84°
2026-04-23 16:18 -4.86997 119.77187 11712 ft 346 kts 84°
2026-04-23 16:18 -4.86757 119.79571 12336 ft 349 kts 84°
2026-04-23 16:19 -4.86510 119.82002 12944 ft 352 kts 84°
2026-04-23 16:19 -4.86259 119.84456 13514 ft 357 kts 84°
2026-04-23 16:19 -4.86005 119.86957 13857 ft 361 kts 84°
2026-04-23 16:19 -4.85751 119.89468 14250 ft 364 kts 84°
2026-04-23 16:20 -4.85497 119.91999 14812 ft 366 kts 84°
2026-04-23 16:20 -4.85242 119.94550 15348 ft 368 kts 84°
2026-04-23 16:20 -4.84984 119.97115 15887 ft 371 kts 84°
2026-04-23 16:20 -4.84726 119.99694 16407 ft 374 kts 84°
2026-04-23 16:21 -4.84464 120.02298 16926 ft 376 kts 84°
2026-04-23 16:21 -4.84205 120.04895 17433 ft 379 kts 84°
2026-04-23 16:21 -4.83939 120.07535 17932 ft 382 kts 84°
2026-04-23 16:21 -4.83672 120.10190 18402 ft 384 kts 84°
2026-04-23 16:22 -4.83401 120.12870 18827 ft 387 kts 84°
2026-04-23 16:22 -4.83128 120.15563 19241 ft 390 kts 84°
2026-04-23 16:22 -4.82852 120.18278 19675 ft 393 kts 84°
2026-04-23 16:22 -4.82576 120.21012 20110 ft 395 kts 84°
2026-04-23 16:23 -4.82298 120.23758 20551 ft 398 kts 84°
2026-04-23 16:23 -4.82020 120.26535 21003 ft 400 kts 84°
2026-04-23 16:23 -4.81741 120.29321 21425 ft 403 kts 84°
2026-04-23 16:23 -4.81458 120.32118 21853 ft 405 kts 84°
2026-04-23 16:24 -4.81173 120.34942 22264 ft 408 kts 84°
2026-04-23 16:24 -4.80783 120.37765 22668 ft 411 kts 77°
2026-04-23 16:24 -4.79908 120.40495 23055 ft 413 kts 66°
2026-04-23 16:24 -4.78544 120.42998 23448 ft 416 kts 56°
2026-04-23 16:25 -4.76857 120.45366 23771 ft 418 kts 55°
2026-04-23 16:25 -4.75163 120.47745 24082 ft 421 kts 55°
2026-04-23 16:25 -4.73462 120.50145 24413 ft 422 kts 55°
2026-04-23 16:25 -4.71760 120.52554 24709 ft 424 kts 55°
2026-04-23 16:26 -4.70053 120.54972 25031 ft 425 kts 55°
2026-04-23 16:26 -4.68335 120.57397 25327 ft 427 kts 55°
2026-04-23 16:26 -4.66611 120.59826 25632 ft 429 kts 55°
2026-04-23 16:26 -4.65461 120.61445 25813 ft 430 kts 55°
2026-04-23 16:27 -4.63725 120.63888 26106 ft 432 kts 55°
2026-04-23 16:27 -4.61979 120.66348 26381 ft 433 kts 55°
2026-04-23 16:27 -4.59639 120.69648 26760 ft 436 kts 55°
2026-04-23 16:27 -4.58471 120.71296 26940 ft 437 kts 55°
2026-04-23 16:28 -4.56709 120.73783 27220 ft 438 kts 55°
2026-04-23 16:28 -4.54940 120.76272 27488 ft 439 kts 55°
2026-04-23 16:28 -4.53160 120.78774 27747 ft 441 kts 54°
2026-04-23 16:28 -4.51374 120.81285 27999 ft 443 kts 55°
2026-04-23 16:29 -4.49585 120.83807 28248 ft 444 kts 55°
2026-04-23 16:29 -4.47817 120.86301 28485 ft 446 kts 55°
2026-04-23 16:29 -4.46020 120.88841 28717 ft 447 kts 55°
2026-04-23 16:29 -4.44214 120.91389 28954 ft 449 kts 55°
2026-04-23 16:30 -4.42400 120.93951 29180 ft 450 kts 55°
2026-04-23 16:30 -4.40579 120.96518 29399 ft 452 kts 54°
2026-04-23 16:30 -4.38758 120.99086 29603 ft 453 kts 54°
2026-04-23 16:30 -4.36926 121.01670 29814 ft 455 kts 54°
2026-04-23 16:31 -4.35087 121.04261 30003 ft 456 kts 54°
2026-04-23 16:31 -4.33247 121.06856 30165 ft 457 kts 54°
2026-04-23 16:31 -4.31405 121.09454 30314 ft 459 kts 54°
2026-04-23 16:31 -4.29574 121.12038 30492 ft 460 kts 54°
2026-04-23 16:32 -4.27719 121.14657 30642 ft 461 kts 54°
2026-04-23 16:32 -4.25866 121.17272 30865 ft 460 kts 55°
2026-04-23 16:32 -4.24021 121.19876 31094 ft 459 kts 55°
2026-04-23 16:32 -4.22170 121.22485 31314 ft 458 kts 55°
2026-04-23 16:33 -4.20290 121.25071 31545 ft 458 kts 54°
2026-04-23 16:33 -4.18376 121.27617 31761 ft 458 kts 53°
2026-04-23 16:33 -4.16433 121.30148 31998 ft 457 kts 53°
2026-04-23 16:33 -4.14484 121.32666 32225 ft 457 kts 53°
2026-04-23 16:34 -4.12542 121.35180 32449 ft 456 kts 53°
2026-04-23 16:34 -4.10607 121.37701 32677 ft 456 kts 53°
2026-04-23 16:34 -4.08686 121.40223 32906 ft 455 kts 53°
2026-04-23 16:34 -4.06796 121.42718 33141 ft 455 kts 54°
2026-04-23 16:35 -4.04889 121.45243 33376 ft 454 kts 54°
2026-04-23 16:35 -4.02959 121.47796 33628 ft 454 kts 54°
2026-04-23 16:35 -4.01053 121.50314 33873 ft 453 kts 54°
2026-04-23 16:35 -3.99173 121.52797 34096 ft 452 kts 54°
2026-04-23 16:36 -3.97275 121.55303 34360 ft 450 kts 54°
2026-04-23 16:36 -3.95384 121.57797 34598 ft 449 kts 54°
2026-04-23 16:36 -3.93495 121.60284 34819 ft 448 kts 54°
2026-04-23 16:36 -3.91611 121.62762 35031 ft 447 kts 54°
2026-04-23 16:37 -3.89730 121.65238 35242 ft 446 kts 54°
2026-04-23 16:37 -3.87854 121.67710 35444 ft 445 kts 54°
2026-04-23 16:37 -3.85981 121.70176 35629 ft 444 kts 54°
2026-04-23 16:37 -3.84107 121.72641 35803 ft 444 kts 54°
2026-04-23 16:38 -3.82240 121.75099 35963 ft 444 kts 54°
2026-04-23 16:38 -3.80372 121.77557 36135 ft 443 kts 54°
2026-04-23 16:38 -3.78506 121.80014 36299 ft 443 kts 54°
2026-04-23 16:38 -3.76640 121.82472 36479 ft 442 kts 54°
2026-04-23 16:39 -3.74782 121.84918 36664 ft 441 kts 54°
2026-04-23 16:39 -3.72950 121.87328 36825 ft 440 kts 54°
2026-04-23 16:39 -3.71097 121.89766 36931 ft 440 kts 54°
2026-04-23 16:39 -3.69247 121.92205 36952 ft 440 kts 54°
2026-04-23 16:40 -3.65551 121.97083 36942 ft 439 kts 54°
2026-04-23 16:40 -3.61857 122.01944 36942 ft 439 kts 54°
2026-04-23 16:41 -3.58155 122.06808 36942 ft 439 kts 54°
2026-04-23 16:41 -3.54461 122.11675 36935 ft 439 kts 54°
2026-04-23 16:42 -3.50767 122.16534 36935 ft 439 kts 54°
2026-04-23 16:42 -3.47058 122.21407 36936 ft 439 kts 54°
2026-04-23 16:43 -3.43354 122.26275 36936 ft 440 kts 54°
2026-04-23 16:43 -3.39669 122.31117 36929 ft 440 kts 54°
2026-04-23 16:44 -3.35964 122.35989 36928 ft 440 kts 54°
2026-04-23 16:44 -3.32265 122.40855 36927 ft 440 kts 54°
2026-04-23 16:45 -3.28552 122.45733 36925 ft 439 kts 56°
2026-04-23 16:45 -3.25307 122.50888 36925 ft 438 kts 60°
2026-04-23 16:46 -3.22137 122.56103 36920 ft 438 kts 60°
2026-04-23 16:46 -3.18970 122.61316 36918 ft 438 kts 60°
2026-04-23 16:47 -3.15797 122.66530 36915 ft 438 kts 60°
2026-04-23 16:47 -3.12643 122.71715 36916 ft 439 kts 60°
2026-04-23 16:48 -3.09461 122.76943 36914 ft 439 kts 60°
2026-04-23 16:48 -3.06286 122.82162 36915 ft 439 kts 60°
2026-04-23 16:49 -3.03130 122.87349 36915 ft 439 kts 60°
2026-04-23 16:49 -2.99946 122.92569 36913 ft 439 kts 60°
2026-04-23 16:50 -2.96762 122.97785 36913 ft 439 kts 60°
2026-04-23 16:50 -2.93583 123.03004 36913 ft 439 kts 60°
2026-04-23 16:51 -2.90404 123.08231 36913 ft 439 kts 60°
2026-04-23 16:51 -2.87220 123.13453 36914 ft 439 kts 60°
2026-04-23 16:52 -2.84037 123.18681 36915 ft 439 kts 60°
2026-04-23 16:52 -2.80881 123.23871 36915 ft 439 kts 60°
2026-04-23 16:53 -2.77692 123.29102 36915 ft 440 kts 60°
2026-04-23 16:53 -2.74510 123.34319 36915 ft 440 kts 60°
2026-04-23 16:54 -2.71328 123.39540 36913 ft 440 kts 60°
2026-04-23 16:54 -2.68142 123.44762 36913 ft 440 kts 60°
2026-04-23 16:55 -2.64957 123.49986 36913 ft 439 kts 60°
2026-04-23 16:55 -2.61779 123.55202 36913 ft 439 kts 60°
2026-04-23 16:56 -2.58608 123.60388 36916 ft 439 kts 60°
2026-04-23 16:56 -2.55420 123.65604 36916 ft 439 kts 60°
2026-04-23 16:57 -2.52234 123.70820 36932 ft 439 kts 60°
2026-04-23 16:57 -2.49051 123.76029 36926 ft 439 kts 60°
2026-04-23 16:58 -2.45880 123.81236 36920 ft 438 kts 60°
2026-04-23 16:58 -2.42707 123.86435 36917 ft 438 kts 60°
2026-04-23 16:59 -2.39533 123.91634 36915 ft 438 kts 60°
2026-04-23 16:59 -2.36365 123.96823 36912 ft 437 kts 60°
2026-04-23 17:00 -2.33195 124.02022 36909 ft 438 kts 60°
2026-04-23 17:00 -2.30023 124.07218 36909 ft 438 kts 60°
2026-04-23 17:01 -2.26865 124.12385 36912 ft 438 kts 60°
2026-04-23 17:01 -2.23688 124.17586 36912 ft 438 kts 60°
2026-04-23 17:02 -2.20509 124.22775 36916 ft 438 kts 60°
2026-04-23 17:02 -2.17329 124.27984 36911 ft 438 kts 60°
2026-04-23 17:03 -2.14158 124.33188 36915 ft 438 kts 60°
2026-04-23 17:03 -2.10981 124.38396 36916 ft 438 kts 60°
2026-04-23 17:04 -2.07803 124.43601 36918 ft 438 kts 60°
2026-04-23 17:04 -2.04627 124.48806 36916 ft 438 kts 60°
2026-04-23 17:05 -2.01441 124.54002 36916 ft 438 kts 60°
2026-04-23 17:05 -1.98258 124.59204 36923 ft 438 kts 60°
2026-04-23 17:06 -1.95078 124.64402 36929 ft 438 kts 60°
2026-04-23 17:06 -1.91857 124.69569 36928 ft 439 kts 55°
2026-04-23 17:07 -1.87744 124.74114 36923 ft 441 kts 49°
2026-04-23 17:07 -1.83523 124.78521 36920 ft 442 kts 49°
2026-04-23 17:08 -1.79257 124.82992 36916 ft 442 kts 49°
2026-04-23 17:08 -1.75046 124.87418 36914 ft 442 kts 49°
2026-04-23 17:09 -1.70806 124.91874 36911 ft 442 kts 49°
2026-04-23 17:09 -1.66565 124.96323 36913 ft 442 kts 49°
2026-04-23 17:10 -1.62320 125.00774 36910 ft 442 kts 49°
2026-04-23 17:10 -1.58065 125.05224 36908 ft 442 kts 49°
2026-04-23 17:11 -1.53819 125.09680 36902 ft 443 kts 48°
2026-04-23 17:11 -1.49562 125.14141 36895 ft 444 kts 48°
2026-04-23 17:12 -1.45296 125.18610 36893 ft 444 kts 48°
2026-04-23 17:12 -1.41034 125.23085 36896 ft 445 kts 48°
2026-04-23 17:13 -1.36764 125.27563 36895 ft 445 kts 48°
2026-04-23 17:13 -1.32484 125.32035 36898 ft 445 kts 48°
2026-04-23 17:14 -1.28935 125.35763 36900 ft 445 kts 48°
2026-04-23 17:14 -1.23970 125.40972 36900 ft 445 kts 48°
2026-04-23 17:15 -1.19690 125.45453 36900 ft 446 kts 48°
2026-04-23 17:15 -1.15415 125.49944 36899 ft 446 kts 48°
2026-04-23 17:16 -1.11831 125.53701 36900 ft 446 kts 48°
2026-04-23 17:16 -1.07570 125.58162 36900 ft 446 kts 48°
2026-04-23 17:17 -1.03282 125.62647 36899 ft 446 kts 48°
2026-04-23 17:17 -0.98993 125.67139 36900 ft 446 kts 48°
2026-04-23 17:18 -0.92561 125.73879 36897 ft 447 kts 48°
2026-04-23 17:19 -0.88272 125.78372 36901 ft 447 kts 48°
2026-04-23 17:19 -0.83976 125.82870 36900 ft 447 kts 48°
2026-04-23 17:20 -0.79693 125.87364 36902 ft 447 kts 48°
2026-04-23 17:21 -0.71108 125.96346 36902 ft 447 kts 47°
2026-04-23 17:21 -0.64678 126.03092 36903 ft 447 kts 48°
2026-04-23 17:22 -0.58241 126.09832 36896 ft 447 kts 47°
2026-04-23 17:23 -0.51822 126.16546 36894 ft 447 kts 47°
2026-04-23 17:24 -0.45879 126.23713 36609 ft 446 kts 54°
2026-04-23 17:24 -0.43999 126.26186 36362 ft 446 kts 54°
2026-04-23 17:24 -0.40223 126.31137 35255 ft 451 kts 54°
2026-04-23 17:25 -0.36392 126.36158 33503 ft 458 kts 53°
2026-04-23 17:25 -0.34457 126.38694 32865 ft 455 kts 53°
2026-04-23 17:26 -0.30664 126.43672 31714 ft 446 kts 53°
2026-04-23 17:26 -0.26928 126.48571 30554 ft 440 kts 53°
2026-04-23 17:27 -0.23237 126.53417 29367 ft 435 kts 52°
2026-04-23 17:27 -0.21414 126.55812 28822 ft 430 kts 52°
2026-04-23 17:27 -0.19607 126.58185 28272 ft 426 kts 53°
2026-04-23 17:27 -0.17843 126.60503 27736 ft 423 kts 53°
2026-04-23 17:28 -0.16073 126.62827 27207 ft 419 kts 53°
2026-04-23 17:28 -0.14312 126.65139 26687 ft 416 kts 53°
2026-04-23 17:28 -0.12565 126.67428 26165 ft 412 kts 53°
2026-04-23 17:28 -0.10834 126.69700 25675 ft 409 kts 53°
2026-04-23 17:29 -0.09119 126.71955 25201 ft 406 kts 53°
2026-04-23 17:29 -0.07412 126.74198 24720 ft 403 kts 53°
2026-04-23 17:29 -0.04034 126.78627 23786 ft 398 kts 53°
2026-04-23 17:30 -0.02360 126.80820 23280 ft 397 kts 53°
2026-04-23 17:30 0.00964 126.85174 22312 ft 390 kts 53°
2026-04-23 17:30 0.02600 126.87317 21847 ft 387 kts 53°
2026-04-23 17:31 0.04228 126.89451 21374 ft 384 kts 53°
2026-04-23 17:31 0.05721 126.91411 20945 ft 382 kts 53°
2026-04-23 17:31 0.07421 126.93643 20429 ft 380 kts 53°
2026-04-23 17:31 0.09015 126.95743 19954 ft 378 kts 53°
2026-04-23 17:32 0.10602 126.97830 19471 ft 377 kts 53°
2026-04-23 17:32 0.12187 126.99912 18991 ft 375 kts 53°
2026-04-23 17:32 0.13747 127.01962 18519 ft 374 kts 54°
2026-04-23 17:32 0.15322 127.04028 18024 ft 373 kts 54°
2026-04-23 17:33 0.16898 127.06085 17513 ft 371 kts 53°
2026-04-23 17:33 0.18469 127.08111 17031 ft 365 kts 53°
2026-04-23 17:33 0.20014 127.10095 16562 ft 359 kts 53°
2026-04-23 17:33 0.21539 127.12049 16104 ft 354 kts 53°
2026-04-23 17:34 0.23041 127.13976 15652 ft 349 kts 53°
2026-04-23 17:34 0.24521 127.15882 15203 ft 344 kts 53°
2026-04-23 17:34 0.27435 127.19613 14314 ft 337 kts 52°
2026-04-23 17:35 0.28863 127.21418 13877 ft 334 kts 52°
2026-04-23 17:35 0.31726 127.25030 12964 ft 329 kts 52°
2026-04-23 17:35 0.33141 127.26821 12527 ft 327 kts 52°
2026-04-23 17:36 0.34545 127.28600 12131 ft 325 kts 52°
2026-04-23 17:36 0.35947 127.30372 11782 ft 324 kts 52°
2026-04-23 17:36 0.37342 127.32134 11368 ft 323 kts 52°
2026-04-23 17:36 0.38730 127.33890 10942 ft 321 kts 52°
2026-04-23 17:37 0.40110 127.35636 10511 ft 320 kts 52°
2026-04-23 17:37 0.41481 127.37370 10236 ft 314 kts 52°
2026-04-23 17:37 0.44094 127.40669 9930 ft 294 kts 52°
2026-04-23 17:38 0.45356 127.42263 9726 ft 292 kts 52°
2026-04-23 17:38 0.46611 127.43849 9367 ft 290 kts 52°
2026-04-23 17:38 0.47859 127.45427 9044 ft 288 kts 52°
2026-04-23 17:38 0.49156 127.46964 8458 ft 294 kts 49°
2026-04-23 17:39 0.50523 127.48461 8125 ft 288 kts 47°
2026-04-23 17:39 0.51871 127.49894 7681 ft 286 kts 47°
2026-04-23 17:39 0.53227 127.51323 7073 ft 282 kts 47°
2026-04-23 17:39 0.54568 127.52740 6548 ft 276 kts 47°
2026-04-23 17:40 0.55838 127.54092 6344 ft 256 kts 47°
2026-04-23 17:40 0.57030 127.55328 6157 ft 240 kts 40°
2026-04-23 17:40 0.58475 127.56114 6045 ft 238 kts 16°
2026-04-23 17:40 0.60119 127.56220 5843 ft 239 kts 350°
2026-04-23 17:41 0.61645 127.55590 5584 ft 240 kts 323°
2026-04-23 17:41 0.64187 127.53422 5031 ft 240 kts 320°
2026-04-23 17:41 0.65456 127.52341 4727 ft 239 kts 321°
2026-04-23 17:42 0.68035 127.50263 4082 ft 237 kts 322°
2026-04-23 17:42 0.69320 127.49241 3767 ft 236 kts 322°
2026-04-23 17:42 0.70602 127.48220 3447 ft 234 kts 322°
2026-04-23 17:43 0.71855 127.47219 3113 ft 226 kts 322°
2026-04-23 17:43 0.73048 127.46263 2815 ft 217 kts 322°
2026-04-23 17:43 0.74201 127.45337 2444 ft 208 kts 322°
2026-04-23 17:43 0.75304 127.44450 2115 ft 199 kts 321°
2026-04-23 17:44 0.76348 127.43613 1816 ft 184 kts 321°
2026-04-23 17:44 0.77304 127.42845 1541 ft 170 kts 321°
2026-04-23 17:44 0.79029 127.41456 1055 ft 152 kts 321°
2026-04-23 17:45 0.79834 127.40809 833 ft 149 kts 321°
2026-04-23 17:45 0.81432 127.39517 351 ft 146 kts 321°
2026-04-23 17:45 0.82220 127.38881 110 ft 145 kts 322°
2026-04-23 17:46 0.83264 127.38044 51 ft 35 kts 321°
2026-04-23 17:46 0.83397 127.37937 52 ft 14 kts 321°
2026-04-23 17:46 0.83450 127.37873 52 ft 9 kts 264°
2026-04-23 17:47 0.83423 127.37834 52 ft 5 kts 231°
2026-04-23 17:47 0.83399 127.37796 50 ft 10 kts 254°
2026-04-23 17:47 0.83421 127.37726 51 ft 2 kts 241°
2026-04-23 17:48 0.83411 127.37711 53 ft 4 kts 234°
2026-04-23 17:48 0.83404 127.37702 52 ft 0 kts 231°